Terminal Aerodrome Forecast
Issued by NWS Pittsburgh, PA

Current Version | Previous Version | Text Only | Print | Product List | Glossary Off
Versions: 1 2 3 4 5 6 7 8 9 10 11 12 13 14 15 16 17 18 19 20 21 22 23 24 25 26 27 28 29 30 31

000
FTUS41 KPBZ 221700
TAFPIT
TAF
KPIT 221728Z 2218/2324 21005KT P6SM SCT030
     FM231500 25011G16KT P6SM SCT030 BKN100
     FM231800 28012G18KT 5SM -SHRA VCTS BKN035CB
     FM232100 30009G15KT P6SM SCT030=

USA.gov is the U.S. government's official web portal to all federal, state and local government web resources and services.